sat.trackr.live / text

‹ back to catalog

STARLINK-35342

NORAD 66181 · 2025-243E

PAYLOAD ACTIVE UNKNOWN

§ Identity

Operator
Country
US
Launch date
2025-10-26
Launch site
AFETR
Launch vehicle
Mass (kg)
RCS (m²)

Purposes: comms

External: N2YO · Heavens-Above · Gunter

§ Orbital elements

Epoch: 2026-05-24T23:52:26.342112Z

Period
94.10 min
Inclination
53.1571°
Eccentricity
0.0000981
Mean motion
15.30210612 rev/d
Perigee alt
474.5 km
Apogee alt
475.9 km
Semi-major
6,853.3 km
B*
6.2229e-4
RAAN
251.0191°
Arg perigee
71.6554°
Mean anomaly
288.4554°
Rev number
3,233

§ Raw data

STARLINK-353421 66181U 25243E   26144.99474933  .00018122  00000+0  62229-3 0  99902 66181  53.1571 251.0191 0000981  71.6554 288.4554 15.30210612 32339

JSON: /api/v1/satellites/66181 · /tle

For live sub-satellite position, see the globe view (requires WebGL).

§ Visibility from observer

Set your observer location to see the next 7 days of passes ≥ 10°. The values pass through the URL so the page stays shareable.

No JS? Fill the form by hand. The geolocation button needs JavaScript.